Skip Page Navigation
NASA JPL Caltech
NASA Logo - Jet Propulsion Laboratory + View the NASA Portal
+ Center for Near-Earth Object Studies
JPL Home Earth Solar System Stars & Galaxies Technology
JPL Solar System Dynamics
BODIES ORBITS EPHEMERIDES TOOLS PHYSICAL DATA DISCOVERY FAQ SITE MAP
IMPORTANT: The SSD Announcement email list is now available. Major changes are coming in the near future, including possible hostname and/or URL changes. To be notified of such changes, subscribe to this email list.

Please visit this page for more details.


JPL Small-Body Database Browser
Search: [ help ]  
24413 Britneyschmidt (2000 AN243)
Classification: Outer Main-belt Asteroid          SPK-ID: 2024413
Ephemeris | Orbit Diagram | Orbital Elements | Mission Design | Physical Parameters | Discovery Circumstances | Close-Approach Data ]

[ hide orbit diagram ]

For accurate long-term ephemerides, please instead use our Horizons system.This orbit viewer was implemented using two-body methods, and hence should not be used for determining accurate long-term trajectories (over several years or decades) or planetary encounter circumstances.


[ revert to old Java-based viewer ]

Orbital Elements at Epoch 2458600.5 (2019-Apr-27.0) TDB
Reference: JPL 28 (heliocentric ecliptic J2000)
 Element Value Uncertainty (1-sigma)   Units 
e .03769659639365479 3.7463e-08  
a 3.210352747616309 2.6458e-08 au
q 3.089333375808156 1.168e-07 au
i 12.27416928575298 4.595e-06 deg
node 200.4577476677333 2.0226e-05 deg
peri 231.794938676362 6.7577e-05 deg
M 191.1060727991087 6.3642e-05 deg
tp 2459586.187143677727
(2022-Jan-06.68714368)
0.00036967 TDB
period 2101.007286673532
5.75
2.5973e-05
7.111e-08
d
yr
n .1713463833673696 2.1182e-09 deg/d
Q 3.331372119424461 2.7456e-08 au
  Orbit Determination Parameters
   # obs. used (total)      1341  
   data-arc span      14093 days (38.58 yr)  
   first obs. used      1980-09-13  
   last obs. used      2019-04-15  
   planetary ephem.      DE431  
   SB-pert. ephem.      SB431-N16  
   condition code      0  
   norm. resid. RMS      .49255  
   source      ORB  
   producer      Otto Matic  
   solution date      2019-Jul-13 00:33:56  

Additional Information
 Earth MOID = 2.11583 au 
 Jupiter MOID = 1.82156 au 
 T_jup = 3.155 
[ show covariance matrix ]

Ephemeris | Orbit Diagram | Orbital Elements | Mission Design | Physical Parameters | Discovery Circumstances | Close-Approach Data ]

Physical Parameter Table
Parameter Symbol Value Units Sigma Reference Notes
absolute magnitude H 12.9   n/a MPO435929  
diameter diameter 12.088 km 0.433 urn:nasa:pds:neowise_diameters_albedos::2.0[mainbelt] (http://adsabs.harvard.edu/abs/2011ApJ...741...68M)  
geometric albedo albedo 0.101   0.021 urn:nasa:pds:neowise_diameters_albedos::2.0[mainbelt] (http://adsabs.harvard.edu/abs/2011ApJ...741...68M)  

24413 Britneyschmidt           Discovered 2000 Jan. 7 by the Lowell Observatory Near-Earth Object Search at the Anderson Mesa Station.
Britney Elyce Schmidt (b. 1982) is an assistant professor in the department of Earth and Atmospheric Sciences at Georgia Tech University. Her research on thermal evolution formation scenarios for the largest asteroids reveals new implications for their past and present hydrospheres.
NOTE: some special characters may not display properly (any characters within {} are an attempt to place the proper accent above a character)
Reference: MPC batch dated 2014-07-12Last Updated: 2014-08-13

[ show close-approach data ]
Alternate Designations
 2000 AN243 = 1980 RT5 
Ephemeris | Orbit Diagram | Orbital Elements | Mission Design | Physical Parameters | Discovery Circumstances | Close-Approach Data ]
ABOUT SSD CREDITS/AWARDS PRIVACY/COPYRIGHT GLOSSARY LINKS
FirstGov 2019-Oct-14 12:17 UT
(server date/time)  
NASA Home Page
Site Manager:   Ryan S. Park
Webmaster  Alan B. Chamberlin